Location: Newark
(15.4608°S, 41.1635°W)
Time: 10:14:51
(UTC+00:00)

Transit 2A - All Passes

Search period start: 01 March 2021 00:00
Search period end: 11 March 2021 00:00
Orbit: 601 x 958 km, 66.7° (Epoch: 28 February)

Date Brightness Start Highest point End Pass type
(mag) Time Alt. Az. Time Alt. Az. Time Alt. Az.
01 Mar - 08:03:49 10° NNE 08:07:47 28° ENE 08:12:07 10° SE visible
01 Mar - 09:47:32 10° WNW 09:50:52 18° WSW 09:54:26 10° SSW daylight
01 Mar - 18:46:38 10° S 18:51:49 26° ESE 18:56:47 10° ENE daylight
01 Mar - 20:29:28 10° SW 20:34:54 31° WNW 20:40:04 10° NNW daylight
02 Mar - 07:30:55 10° NE 07:33:49 16° ENE 07:36:52 10° ESE visible
02 Mar - 09:12:22 10° NW 09:16:33 30° WSW 09:21:08 10° S daylight
02 Mar - 18:13:33 10° SSE 18:17:29 17° ESE 18:21:18 10° E daylight
02 Mar - 19:54:48 10° SW 20:00:52 49° WNW 20:06:33 10° N daylight
03 Mar - 08:37:42 10° NW 08:42:19 50° WSW 08:47:26 10° S daylight
03 Mar - 17:42:10 10° SE 17:43:05 10° ESE 17:44:00 10° ESE daylight
03 Mar - 19:20:27 10° SSW 19:26:47 78° WNW 19:32:41 10° NNE daylight
04 Mar - 08:03:24 10° NNW 08:08:08 87° WSW 08:13:26 10° SSE visible
04 Mar - 18:46:19 10° SSW 18:52:37 68° ESE 18:58:31 10° NNE daylight
04 Mar - 20:34:25 10° W 20:35:10 10° WNW 20:35:56 10° WNW daylight
05 Mar - 07:29:26 10° N 07:34:02 54° ENE 07:39:09 10° SSE visible
05 Mar - 18:12:26 10° S 18:18:25 44° ESE 18:24:03 10° NE daylight
05 Mar - 19:57:13 10° WSW 20:01:12 18° WNW 20:05:01 10° NW daylight
06 Mar - 06:55:50 10° NNE 07:00:00 31° ENE 07:04:34 10° SE visible
06 Mar - 08:39:59 10° WNW 08:43:09 17° WSW 08:46:31 10° SSW daylight
06 Mar - 17:38:48 10° S 17:44:09 28° ESE 17:49:14 10° ENE daylight
06 Mar - 19:21:58 10° SW 19:27:11 28° WNW 19:32:08 10° NNW daylight
07 Mar - 06:22:46 10° NNE 06:26:01 18° ENE 06:29:29 10° ESE visible
07 Mar - 08:04:42 10° WNW 08:08:50 27° WSW 08:13:20 10° S visible
07 Mar - 17:05:37 10° SSE 17:09:50 18° ESE 17:13:54 10° ENE daylight
07 Mar - 18:47:13 10° SW 18:53:09 45° WNW 18:58:43 10° N daylight
08 Mar - 05:51:41 10° ENE 05:52:03 10° ENE 05:52:26 10° E visible
08 Mar - 07:29:58 10° NW 07:34:34 45° WSW 07:39:42 10° S visible
08 Mar - 16:33:30 10° SE 16:35:26 11° ESE 16:37:21 10° ESE daylight
08 Mar - 18:12:48 10° SSW 18:19:05 71° WNW 18:24:55 10° NNE daylight
09 Mar - 06:55:36 10° NNW 07:00:23 78° WSW 07:05:45 10° SSE visible
09 Mar - 17:38:37 10° SSW 17:44:56 75° ESE 17:50:48 10° NNE daylight
10 Mar - 06:21:35 10° N 06:26:16 61° ENE 06:31:31 10° SSE visible
10 Mar - 17:04:41 10° S 17:10:44 47° ESE 17:16:24 10° NE daylight
10 Mar - 18:49:55 10° WSW 18:53:27 16° WNW 18:56:52 10° NW daylight
